Current weather by "City, St" or "zip code"  
 

Current Conditions: Kansas City, Kansas City Downtown Airport, MO

Fair


76.0 F

Last Updated on Aug 9 2022, 10:54 pm CDT
Humidity: 67%
Wind Speed: E 5.8 mph
Barometer 30.11 in
Dewpoint: 64.0 F
Visibility: 10.00 mi
Precip: --
Heat Index: NA
Wind Chill: NA
Current conditions at:

Kansas City, Kansas City Downtown Airport, MO (KMKC)

Lat: 39.12083 Lon: 94.59694

Local Radar Image active severe weather and emergency alerts image image weather storm and storm spotter reports image weather observation monitoring service image
Local
Radar
Active
Alerts
Storm Reports Obs
Monitoring

Sign-up For Email & Text Message Weather Alert Notification Services



Advertise Here

Observation History for Kansas City, Kansas City Downtown Airport, MO


Time Wind
(mph)
Vis
(mi)
Weather Precip (in) Temperature (F) Relative
Humidity
Wind
Chill
(F)
Heat
Index
(F)
Pressure
Air Dwpt altimeter
(in)
sea level
(mb)
Rmks
10:54 pm CDT E 5.8 10.00 Fair -- 76.0 64.0 67% NA NA 30.11 1018.9
8:54 pm CDT E 9.2 10.00 Fair -- 80.0 63.0 56% NA 81 30.05 1016.7
7:54 pm CDT E 6.9 10.00 Fair -- 83.0 64.0 53% NA 84 30.03 1016.1
6:54 pm CDT E 3.5 10.00 Fair -- 85.0 62.1 46% NA 86 30.02 1015.8
5:54 pm CDT NE 6.9 10.00 Fair -- 85.0 63.0 48% NA 86 30.03 1016.0
4:54 pm CDT E 6.9 10.00 Fair -- 86.0 64.0 48% NA 87 30.04 1016.4
3:54 pm CDT 10.00 Fair -- 86.0 63.0 46% NA 87 30.05 1016.9
2:54 pm CDT N 0.0 10.00 A Few Clouds -- 84.0 63.0 49% NA 85 30.08 1017.7
1:54 pm CDT 10.00 Fair -- 84.0 63.0 49% NA 85 30.10 1018.3
12:54 pm CDT NE 9.2 10.00 Fair -- 83.0 64.0 53% NA 84 30.10 1018.6
11:54 am CDT NE 9.2 10.00 Fair -- 81.0 64.9 58% NA 83 30.12 1019.2
10:54 am CDT NE 6.9 10.00 Fair -- 78.0 64.0 62% NA NA 30.12 1019.1
9:54 am CDT NE 5.8 10.00 Fair -- 76.0 64.0 67% NA NA 30.12 1019.2
8:54 am CDT E 8.1 10.00 Fair -- 73.0 63.0 71% NA NA 30.11 1018.9
6:54 am CDT NE 5.8 10.00 Fair -- 69.0 64.0 84% NA NA 30.08 1018.0
5:54 am CDT NE 8.1 10.00 Fair -- 69.0 64.9 87% NA NA 30.06 1017.2
4:54 am CDT NE 6.9 10.00 Fair -- 70.0 66.0 87% NA NA 30.04 1016.5
3:54 am CDT N 4.6 10.00 Fair -- 71.0 68.0 90% NA NA 30.04 1016.7
2:54 am CDT N 3.5 10.00 Mostly Cloudy -- 72.0 69.1 91% NA NA 30.05 1017.0
1:54 am CDT NW 3.5 10.00 Partly Cloudy -- 72.0 68.0 87% NA NA 30.06 1017.2
12:54 am CDT N 0.0 10.00 Mostly Cloudy -- 73.0 69.1 87% NA NA 30.07 1017.6

Regional Weather Observation


Kansas City, Kansas City Downtown Airport, MO (KMKC)

Fair
76.0 F

Mosby Midwest National Air Center Airport, MO (KGPH)

Fair
64.0 F

St. Joseph, Rosecrans Memorial Airport, MO (KSTJ)

Fair
68.0 F

Lawrence, Lawrence Municipal Airport, KS (KLWC)

Fair
70.0 F

Cameron Memorial Airport, MO (KEZZ)

Fair
68.0 F

Topeka, Philip Billard Municipal Airport, KS (KTOP)

Fair
71.0 F

Advertise Here


Advertise Here